sat.trackr.live / text

‹ back to catalog

STARLINK-30345

NORAD 57701 · 2023-129D

PAYLOAD ACTIVE UNKNOWN

§ Identity

Operator
Country
US
Launch date
2023-08-27
Launch site
AFETR
Launch vehicle
Mass (kg)
RCS (m²)

Purposes: comms

External: N2YO · Heavens-Above · Gunter

§ Orbital elements

Epoch: 2026-05-25T03:02:07.845216Z

Period
94.27 min
Inclination
43.0026°
Eccentricity
0.0001024
Mean motion
15.27577349 rev/d
Perigee alt
482.4 km
Apogee alt
483.8 km
Semi-major
6,861.2 km
B*
2.0026e-5
RAAN
46.1457°
Arg perigee
239.0501°
Mean anomaly
121.0250°
Rev number
15,223

§ Raw data

STARLINK-303451 57701U 23129D   26145.12647969  .00000289  00000+0  20026-4 0  99912 57701  43.0026  46.1457 0001024 239.0501 121.0250 15.27577349152235

JSON: /api/v1/satellites/57701 · /tle

For live sub-satellite position, see the globe view (requires WebGL).

§ Visibility from observer

Set your observer location to see the next 7 days of passes ≥ 10°. The values pass through the URL so the page stays shareable.

No JS? Fill the form by hand. The geolocation button needs JavaScript.